Torna al catalogo

OPS 4682 DEB

AttivoPO
NORAD 38385·DEBRIS·🇺🇸 United States

Lanciato Apr 3, 1965 da Vandenberg Space Force Base

Loading…

Prossimi Passaggi (prossime 24 ore)

TLE

In scadenzaSource: Space-Track

Epoca: Sep 10, 2026, 14:10 UTC

1 38385U 65027CN  26253.59078294  .00000360  00000-0  12228-2 0  9995
2 38385  90.2455   0.7235 0044165 208.0530 151.8209 12.96711664626529

Traccia OPS 4682 DEB in tempo reale con AllMySat

Download on the App Store